When you browse on this site, cookies collect data to enhance your experience and personalize the content and advertising you see.
Visit our Privacy Policy to learn more. By continuing to use the site, you agree to this use of cookies and data.
  • In Österreich
  • Länderverzeichnis
  • Für 7 Tage
  • Wassertemperatur
  • Wetterkarte
  • News
  • Widgets
  • user-avatar
    Anmelden

    Stündliche Wetter Kawarna

    Heute, 20 Oktober, Sonntag

    Zeit Temperatur Niederschläge Wind Luftdruck Luftfeuchtigkeit
    00:00 +16°C° 0 mm 2 m/S 764 mmHg 89%
    01:00 +16°C° 0 mm 2 m/S 764 mmHg 88%
    02:00 +16°C° 0 mm 1 m/S 764 mmHg 88%
    03:00 +16°C° 0 mm 1 m/S 764 mmHg 88%
    04:00 +16°C° 0 mm 1 m/S 764 mmHg 88%
    05:00 +15°C° 0 mm 1 m/S 764 mmHg 88%
    06:00 +16°C° 0 mm 1 m/S 765 mmHg 86%
    07:00 +17°C° 0 mm 2 m/S 765 mmHg 85%
    08:00 +17°C° 0 mm 2 m/S 765 mmHg 82%
    09:00 +18°C° 0 mm 2 m/S 765 mmHg 76%
    10:00 +19°C° 0 mm 2 m/S 765 mmHg 70%
    11:00 +21°C° 0 mm 2 m/S 766 mmHg 64%
    12:00 +21°C° 0 mm 2 m/S 765 mmHg 64%
    13:00 +21°C° 0 mm 2 m/S 765 mmHg 64%
    14:00 +21°C° 0 mm 2 m/S 765 mmHg 66%
    15:00 +20°C° 0 mm 2 m/S 765 mmHg 70%
    16:00 +19°C° 0 mm 2 m/S 765 mmHg 75%
    17:00 +18°C° 0 mm 2 m/S 765 mmHg 79%
    18:00 +18°C° 0 mm 2 m/S 765 mmHg 83%
    19:00 +17°C° 0 mm 2 m/S 765 mmHg 86%
    20:00 +17°C° 0 mm 2 m/S 765 mmHg 90%
    21:00 +17°C° 0 mm 2 m/S 765 mmHg 90%
    22:00 +17°C° 0 mm 2 m/S 766 mmHg 90%
    23:00 +16°C° 0 mm 3 m/S 766 mmHg 91%

    Morgen, 21 Oktober, Montag

    Zeit Temperatur Niederschläge Wind Luftdruck Luftfeuchtigkeit
    00:00 +16°C° 0 mm 2 m/S 766 mmHg 91%
    01:00 +16°C° 0 mm 2 m/S 766 mmHg 91%
    02:00 +16°C° 0 mm 2 m/S 766 mmHg 91%
    03:00 +16°C° 0 mm 2 m/S 766 mmHg 91%
    04:00 +16°C° 0 mm 2 m/S 766 mmHg 91%
    05:00 +16°C° 0 mm 2 m/S 766 mmHg 91%
    06:00 +16°C° 0 mm 2 m/S 766 mmHg 90%
    07:00 +17°C° 0 mm 2 m/S 766 mmHg 88%
    08:00 +17°C° 0 mm 2 m/S 766 mmHg 87%
    09:00 +18°C° 0 mm 2 m/S 766 mmHg 80%
    10:00 +20°C° 0 mm 2 m/S 766 mmHg 73%
    11:00 +21°C° 0 mm 2 m/S 766 mmHg 66%
    12:00 +21°C° 0 mm 2 m/S 766 mmHg 65%
    13:00 +21°C° 0 mm 2 m/S 766 mmHg 64%
    14:00 +22°C° 0 mm 1 m/S 766 mmHg 63%
    15:00 +20°C° 0 mm 2 m/S 766 mmHg 68%
    16:00 +19°C° 0 mm 2 m/S 766 mmHg 73%
    17:00 +18°C° 0 mm 2 m/S 765 mmHg 78%
    18:00 +19°C° 0 mm 1 m/S 765 mmHg 81%
    19:00 +18°C° 0 mm 1 m/S 766 mmHg 84%
    20:00 +16°C° 0 mm 1 m/S 766 mmHg 87%
    21:00 +16°C° 0 mm 1 m/S 766 mmHg 87%
    22:00 +16°C° 0 mm 1 m/S 766 mmHg 87%
    23:00 +16°C° 0 mm 1 m/S 766 mmHg 87%

    übermorgen, 22 Oktober, Dienstag

    Zeit Temperatur Niederschläge Wind Luftdruck Luftfeuchtigkeit
    00:00 +15°C° 0 mm 2 m/S 766 mmHg 86%
    01:00 +15°C° 0 mm 2 m/S 766 mmHg 86%
    02:00 +15°C° 0 mm 2 m/S 766 mmHg 86%
    03:00 +14°C° 0 mm 3 m/S 766 mmHg 86%
    04:00 +14°C° 0 mm 3 m/S 766 mmHg 86%
    05:00 +14°C° 0 mm 3 m/S 766 mmHg 87%
    06:00 +14°C° 0 mm 3 m/S 766 mmHg 85%
    07:00 +15°C° 0 mm 4 m/S 766 mmHg 84%
    08:00 +15°C° 0 mm 4 m/S 766 mmHg 83%
    09:00 +18°C° 0 mm 4 m/S 766 mmHg 75%
    10:00 +20°C° 0 mm 5 m/S 766 mmHg 68%
    11:00 +22°C° 0 mm 5 m/S 767 mmHg 60%
    12:00 +22°C° 0 mm 5 m/S 766 mmHg 59%
    13:00 +22°C° 0 mm 6 m/S 766 mmHg 57%
    14:00 +22°C° 0 mm 6 m/S 766 mmHg 55%
    15:00 +21°C° 0 mm 6 m/S 766 mmHg 60%
    16:00 +20°C° 0 mm 6 m/S 766 mmHg 66%
    17:00 +19°C° 0 mm 5 m/S 766 mmHg 71%
    18:00 +17°C° 0 mm 5 m/S 766 mmHg 75%
    19:00 +16°C° 0 mm 5 m/S 766 mmHg 80%
    20:00 +15°C° 0 mm 4 m/S 766 mmHg 85%
    21:00 +15°C° 0 mm 4 m/S 766 mmHg 85%
    22:00 +15°C° 0 mm 4 m/S 766 mmHg 86%
    23:00 +16°C° 0 mm 3 m/S 766 mmHg 86%

    23 Oktober, Mittwoch

    Zeit Temperatur Niederschläge Wind Luftdruck Luftfeuchtigkeit
    00:00 +16°C° 0 mm 3 m/S 766 mmHg 84%
    01:00 +16°C° 0 mm 3 m/S 766 mmHg 82%
    02:00 +14°C° 0 mm 4 m/S 766 mmHg 81%
    03:00 +14°C° 0 mm 4 m/S 766 mmHg 80%
    04:00 +14°C° 0 mm 4 m/S 766 mmHg 80%
    05:00 +14°C° 0 mm 4 m/S 766 mmHg 80%
    06:00 +15°C° 0 mm 4 m/S 766 mmHg 79%
    07:00 +15°C° 0 mm 4 m/S 766 mmHg 78%
    08:00 +17°C° 0 mm 4 m/S 766 mmHg 78%
    09:00 +18°C° 0 mm 4 m/S 766 mmHg 70%
    10:00 +20°C° 0 mm 4 m/S 766 mmHg 62%
    11:00 +22°C° 0 mm 4 m/S 766 mmHg 54%
    12:00 +22°C° 0 mm 4 m/S 765 mmHg 53%
    13:00 +22°C° 0 mm 4 m/S 765 mmHg 52%
    14:00 +22°C° 0 mm 4 m/S 765 mmHg 51%
    15:00 +21°C° 0 mm 4 m/S 765 mmHg 57%
    16:00 +20°C° 0 mm 4 m/S 764 mmHg 63%
    17:00 +19°C° 0 mm 4 m/S 764 mmHg 69%
    18:00 +18°C° 0 mm 4 m/S 764 mmHg 71%
    19:00 +18°C° 0 mm 3 m/S 764 mmHg 74%
    20:00 +17°C° 0 mm 3 m/S 764 mmHg 77%
    21:00 +17°C° 0 mm 3 m/S 764 mmHg 78%
    22:00 +16°C° 0 mm 2 m/S 764 mmHg 79%
    23:00 +16°C° 0 mm 2 m/S 764 mmHg 80%

    24 Oktober, Donnerstag

    Zeit Temperatur Niederschläge Wind Luftdruck Luftfeuchtigkeit
    00:00 +16°C° 0 mm 2 m/S 764 mmHg 80%
    01:00 +16°C° 0 mm 2 m/S 764 mmHg 81%
    02:00 +15°C° 0 mm 2 m/S 764 mmHg 81%
    03:00 +15°C° 0 mm 2 m/S 764 mmHg 81%
    04:00 +15°C° 0 mm 2 m/S 764 mmHg 82%
    05:00 +15°C° 0 mm 2 m/S 763 mmHg 82%
    06:00 +15°C° 0 mm 2 m/S 763 mmHg 79%
    07:00 +16°C° 0 mm 2 m/S 763 mmHg 76%
    08:00 +16°C° 0 mm 2 m/S 764 mmHg 73%
    09:00 +18°C° 0 mm 3 m/S 763 mmHg 67%
    10:00 +19°C° 0 mm 3 m/S 763 mmHg 60%
    11:00 +21°C° 0 mm 3 m/S 763 mmHg 53%
    12:00 +21°C° 0 mm 3 m/S 763 mmHg 53%
    13:00 +21°C° 0 mm 3 m/S 763 mmHg 52%
    14:00 +22°C° 0 mm 3 m/S 763 mmHg 51%
    15:00 +21°C° 0 mm 3 m/S 762 mmHg 57%
    16:00 +20°C° 0 mm 3 m/S 762 mmHg 62%
    17:00 +19°C° 0 mm 3 m/S 762 mmHg 68%
    18:00 +18°C° 0 mm 2 m/S 762 mmHg 71%
    19:00 +17°C° 0 mm 2 m/S 762 mmHg 74%
    20:00 +17°C° 0 mm 2 m/S 762 mmHg 77%
    21:00 +16°C° 0 mm 2 m/S 762 mmHg 78%
    22:00 +16°C° 0 mm 2 m/S 762 mmHg 79%
    23:00 +16°C° 0 mm 2 m/S 762 mmHg 79%

    25 Oktober, Freitag

    Zeit Temperatur Niederschläge Wind Luftdruck Luftfeuchtigkeit
    00:00 +15°C° 0 mm 2 m/S 762 mmHg 81%
    01:00 +15°C° 0 mm 2 m/S 762 mmHg 82%
    02:00 +15°C° 0 mm 2 m/S 762 mmHg 83%
    03:00 +15°C° 0 mm 2 m/S 762 mmHg 84%
    04:00 +15°C° 0 mm 2 m/S 762 mmHg 85%
    05:00 +14°C° 0 mm 2 m/S 762 mmHg 86%
    06:00 +15°C° 0 mm 2 m/S 762 mmHg 83%
    07:00 +14°C° 0 mm 3 m/S 762 mmHg 81%
    08:00 +16°C° 0 mm 3 m/S 762 mmHg 78%
    09:00 +18°C° 0 mm 3 m/S 762 mmHg 69%
    10:00 +19°C° 0 mm 3 m/S 762 mmHg 60%
    11:00 +21°C° 0 mm 3 m/S 762 mmHg 51%
    12:00 +21°C° 0 mm 3 m/S 762 mmHg 49%
    13:00 +21°C° 0 mm 4 m/S 762 mmHg 47%
    14:00 +21°C° 0 mm 4 m/S 762 mmHg 46%
    15:00 +20°C° 0 mm 4 m/S 762 mmHg 52%
    16:00 +19°C° 0 mm 4 m/S 762 mmHg 58%
    17:00 +18°C° 0 mm 4 m/S 762 mmHg 64%
    18:00 +17°C° 0 mm 4 m/S 762 mmHg 68%
    19:00 +15°C° 0 mm 4 m/S 762 mmHg 73%
    20:00 +15°C° 0 mm 4 m/S 762 mmHg 77%
    21:00 +14°C° 0 mm 4 m/S 763 mmHg 78%
    22:00 +14°C° 0 mm 3 m/S 763 mmHg 80%
    23:00 +14°C° 0 mm 3 m/S 763 mmHg 82%
    Mehr zeigen